Time,TemperatureF,DewpointF,PressureIn,WindDirection,WindDirectionDegrees,WindSpeedMPH,WindSpeedGustMPH,Humidity,HourlyPrecipIn,Conditions,Clouds,dailyrainin,SoftwareType,DateUTC
2013-04-11 00:00:00,39.2,39.2,29.91,WSW,257,0.0,0.0,100,0.00,,OVC022,0.00,VWS V12.08,2013-04-11 04:00:00,
2013-04-11 00:06:00,39.2,39.2,29.91,WSW,257,0.0,0.0,100,0.00,,OVC035,0.00,VWS V12.08,2013-04-11 04:06:00,
2013-04-11 00:11:00,39.1,39.1,29.91,WSW,257,0.0,0.0,100,0.00,,OVC035,0.00,VWS V12.08,2013-04-11 04:11:00,
2013-04-11 00:16:00,39.1,39.1,29.91,WSW,257,0.0,0.0,100,0.00,,OVC035,0.00,VWS V12.08,2013-04-11 04:16:00,
2013-04-11 00:21:00,38.9,38.9,29.91,WSW,257,0.0,0.0,100,0.00,,OVC035,0.00,VWS V12.08,2013-04-11 04:21:00,
2013-04-11 00:26:00,38.8,38.8,29.91,WSW,257,0.0,0.0,100,0.00,,OVC035,0.00,VWS V12.08,2013-04-11 04:26:00,
2013-04-11 00:31:00,38.6,38.6,29.91,WSW,257,0.0,0.0,100,0.00,,OVC035,0.00,VWS V12.08,2013-04-11 04:31:00,
2013-04-11 00:36:00,38.5,38.5,29.91,WSW,257,0.0,0.0,100,0.00,,OVC035,0.00,VWS V12.08,2013-04-11 04:36:00,
2013-04-11 00:41:00,38.5,38.5,29.91,WSW,257,0.0,0.0,100,0.00,,OVC075,0.00,VWS V12.08,2013-04-11 04:41:00,
2013-04-11 00:46:00,38.3,38.3,29.91,WSW,256,0.0,0.0,100,0.00,,OVC075,0.00,VWS V12.08,2013-04-11 04:46:00,
2013-04-11 00:51:00,38.3,38.3,29.91,WSW,256,0.0,0.0,100,0.00,,OVC075,0.00,VWS V12.08,2013-04-11 04:51:00,
2013-04-11 00:56:00,38.3,38.3,29.91,WSW,256,0.0,0.0,100,0.00,,OVC075,0.00,VWS V12.08,2013-04-11 04:56:00,
2013-04-11 01:01:00,38.2,38.2,29.91,WSW,256,0.0,0.0,100,0.00,,OVC075,0.00,VWS V12.08,2013-04-11 05:01:00,
2013-04-11 01:06:00,38.2,38.2,29.91,WSW,257,0.0,0.0,100,0.00,,OVC075,0.00,VWS V12.08,2013-04-11 05:06:00,
2013-04-11 01:12:00,38.2,38.2,29.91,WSW,257,0.0,0.0,100,0.00,,OVC075,0.00,VWS V12.08,2013-04-11 05:12:00,
2013-04-11 01:17:00,38.2,38.2,29.92,WSW,257,0.0,0.0,100,0.00,,OVC075,0.00,VWS V12.08,2013-04-11 05:17:00,
2013-04-11 01:22:00,38.2,38.2,29.92,WSW,256,0.0,0.0,100,0.00,,OVC075,0.00,VWS V12.08,2013-04-11 05:22:00,
2013-04-11 01:27:00,38.2,38.2,29.92,WSW,257,0.0,0.0,100,0.00,,OVC075,0.00,VWS V12.08,2013-04-11 05:27:00,
2013-04-11 01:32:00,38.2,38.2,29.92,WSW,257,0.0,0.0,100,0.00,,OVC075,0.00,VWS V12.08,2013-04-11 05:32:00,
2013-04-11 01:37:00,38.2,38.2,29.92,WSW,257,0.0,0.0,100,0.00,,OVC075,0.00,VWS V12.08,2013-04-11 05:37:00,
2013-04-11 01:42:00,38.2,38.2,29.92,WSW,257,0.0,0.0,100,0.00,,,0.00,VWS V12.08,2013-04-11 05:42:00,
2013-04-11 01:47:00,38.1,38.1,29.91,WSW,257,0.0,0.0,100,0.00,,,0.00,VWS V12.08,2013-04-11 05:47:00,
2013-04-11 01:52:00,38.1,38.1,29.91,WSW,257,0.0,0.0,100,0.00,,,0.00,VWS V12.08,2013-04-11 05:52:00,
2013-04-11 01:57:00,38.1,38.1,29.91,WSW,257,0.0,0.0,100,0.00,,,0.00,VWS V12.08,2013-04-11 05:57:00,
2013-04-11 02:02:00,38.1,38.1,29.90,WSW,257,0.0,0.0,100,0.00,,,0.00,VWS V12.08,2013-04-11 06:02:00,
2013-04-11 02:07:00,38.1,38.1,29.90,WSW,256,0.0,0.0,100,0.00,,,0.00,VWS V12.08,2013-04-11 06:07:00,
2013-04-11 02:12:00,37.9,37.9,29.90,WSW,257,0.0,0.0,100,0.00,,,0.00,VWS V12.08,2013-04-11 06:12:00,
2013-04-11 02:17:00,37.8,37.8,29.90,WSW,257,0.0,0.0,100,0.00,,,0.00,VWS V12.08,2013-04-11 06:17:00,
2013-04-11 02:22:00,37.8,37.8,29.90,WSW,257,0.0,0.0,100,0.00,,,0.00,VWS V12.08,2013-04-11 06:22:00,
2013-04-11 02:27:00,37.8,37.8,29.90,WSW,257,0.0,0.0,100,0.00,,,0.00,VWS V12.08,2013-04-11 06:27:00,
2013-04-11 02:32:00,37.8,37.8,29.89,WSW,257,0.0,0.0,100,0.00,,,0.00,VWS V12.08,2013-04-11 06:32:00,
2013-04-11 02:37:00,37.8,37.8,29.89,WSW,257,0.0,0.0,100,0.00,,,0.00,VWS V12.08,2013-04-11 06:37:00,
2013-04-11 02:42:00,37.6,37.6,29.89,WSW,257,0.0,0.0,100,0.00,,,0.00,VWS V12.08,2013-04-11 06:42:00,
2013-04-11 02:47:00,37.6,37.6,29.89,WSW,257,0.0,0.0,100,0.00,,,0.00,VWS V12.08,2013-04-11 06:47:00,
2013-04-11 02:52:00,37.6,37.6,29.89,WSW,256,0.0,0.0,100,0.00,,,0.00,VWS V12.08,2013-04-11 06:52:00,
2013-04-11 02:57:00,37.6,37.6,29.89,WSW,257,0.0,0.0,100,0.00,,,0.00,VWS V12.08,2013-04-11 06:57:00,
2013-04-11 03:02:00,37.6,37.6,29.90,WSW,257,0.0,0.0,100,0.00,,,0.00,VWS V12.08,2013-04-11 07:02:00,
2013-04-11 03:07:00,37.6,37.6,29.90,WSW,257,0.0,0.0,100,0.00,,,0.00,VWS V12.08,2013-04-11 07:07:00,
2013-04-11 03:12:00,37.6,37.6,29.90,WSW,257,0.0,0.0,100,0.00,,,0.00,VWS V12.08,2013-04-11 07:12:00,
2013-04-11 03:17:00,37.6,37.6,29.88,WSW,257,0.0,0.0,100,0.00,,,0.00,VWS V12.08,2013-04-11 07:17:00,
2013-04-11 03:22:00,37.5,37.5,29.88,WSW,256,0.0,0.0,100,0.00,,,0.00,VWS V12.08,2013-04-11 07:22:00,
2013-04-11 03:27:00,37.5,37.5,29.88,WSW,257,0.0,0.0,100,0.00,,,0.00,VWS V12.08,2013-04-11 07:27:00,
2013-04-11 03:32:00,37.5,37.5,29.89,WSW,257,0.0,0.0,100,0.00,,,0.00,VWS V12.08,2013-04-11 07:32:00,
2013-04-11 03:37:00,37.5,37.5,29.89,WSW,256,0.0,0.0,100,0.00,,,0.00,VWS V12.08,2013-04-11 07:37:00,
2013-04-11 03:42:00,37.5,37.5,29.89,WSW,257,0.0,0.0,100,0.00,,,0.00,VWS V12.08,2013-04-11 07:42:00,
2013-04-11 03:47:00,37.3,37.3,29.89,WSW,256,0.0,0.0,100,0.00,,,0.00,VWS V12.08,2013-04-11 07:47:00,
2013-04-11 03:52:00,37.3,37.3,29.89,WSW,257,0.0,0.0,100,0.00,,,0.00,VWS V12.08,2013-04-11 07:52:00,
2013-04-11 03:57:00,37.3,37.3,29.89,WSW,256,0.0,0.0,100,0.00,,,0.00,VWS V12.08,2013-04-11 07:57:00,
2013-04-11 04:03:00,37.3,37.3,29.89,WSW,256,0.0,0.0,100,0.00,,,0.00,VWS V12.08,2013-04-11 08:03:00,
2013-04-11 04:08:00,37.2,37.2,29.89,WSW,257,0.0,0.0,100,0.00,,,0.00,VWS V12.08,2013-04-11 08:08:00,
2013-04-11 04:13:00,37.1,37.1,29.91,WSW,257,0.0,0.0,100,0.00,,,0.00,VWS V12.08,2013-04-11 08:13:00,
2013-04-11 04:18:00,36.9,36.9,29.91,WSW,257,0.0,0.0,100,0.00,,,0.00,VWS V12.08,2013-04-11 08:18:00,
2013-04-11 04:23:00,36.8,36.8,29.91,WSW,257,0.0,0.0,100,0.00,,,0.00,VWS V12.08,2013-04-11 08:23:00,
2013-04-11 04:28:00,36.8,36.8,29.91,WSW,257,0.0,0.0,100,0.00,,,0.00,VWS V12.08,2013-04-11 08:28:00,
2013-04-11 04:33:00,36.5,36.5,29.91,WSW,257,0.0,0.0,100,0.00,,,0.00,VWS V12.08,2013-04-11 08:33:00,
2013-04-11 04:38:00,36.3,36.3,29.91,WSW,257,0.0,0.0,100,0.00,,,0.00,VWS V12.08,2013-04-11 08:38:00,
2013-04-11 04:43:00,36.0,36.0,29.92,WSW,257,0.0,0.0,100,0.00,,,0.00,VWS V12.08,2013-04-11 08:43:00,
2013-04-11 04:48:00,35.8,35.8,29.92,WSW,257,0.0,0.0,100,0.00,,,0.00,VWS V12.08,2013-04-11 08:48:00,
2013-04-11 04:53:00,35.6,35.6,29.92,WSW,257,0.0,0.0,100,0.00,,,0.00,VWS V12.08,2013-04-11 08:53:00,
2013-04-11 04:58:00,35.3,35.3,29.93,WSW,257,0.0,0.0,100,0.00,,,0.00,VWS V12.08,2013-04-11 08:58:00,
2013-04-11 05:03:00,35.0,35.0,29.93,WSW,257,0.0,0.0,100,0.00,,,0.00,VWS V12.08,2013-04-11 09:03:00,
2013-04-11 05:08:00,34.9,34.9,29.93,WSW,257,0.0,0.0,100,0.00,,,0.00,VWS V12.08,2013-04-11 09:08:00,
2013-04-11 05:13:00,34.9,34.9,29.93,WSW,257,0.0,0.0,100,0.00,,,0.00,VWS V12.08,2013-04-11 09:13:00,
2013-04-11 05:18:00,34.9,34.9,29.93,ESE,113,2.0,3.0,100,0.00,,,0.00,VWS V12.08,2013-04-11 09:18:00,
2013-04-11 05:23:00,34.8,34.8,29.93,ESE,102,0.0,0.0,100,0.00,,,0.00,VWS V12.08,2013-04-11 09:23:00,
2013-04-11 05:28:00,34.6,34.6,29.93,ESE,102,0.0,0.0,100,0.00,,,0.00,VWS V12.08,2013-04-11 09:28:00,
2013-04-11 05:33:00,34.5,34.5,29.93,ESE,102,0.0,0.0,100,0.00,,,0.00,VWS V12.08,2013-04-11 09:33:00,
2013-04-11 05:38:00,34.2,34.2,29.93,East,100,0.0,0.0,100,0.00,,,0.00,VWS V12.08,2013-04-11 09:38:00,
2013-04-11 05:43:00,33.9,33.9,29.94,ESE,102,0.0,0.0,100,0.00,,,0.00,VWS V12.08,2013-04-11 09:43:00,
2013-04-11 05:48:00,33.6,33.6,29.94,ESE,102,0.0,0.0,100,0.01,,,0.01,VWS V12.08,2013-04-11 09:48:00,
2013-04-11 05:53:00,33.3,33.3,29.94,ESE,102,0.0,0.0,100,0.01,,,0.01,VWS V12.08,2013-04-11 09:53:00,
2013-04-11 05:58:00,33.0,33.0,29.96,East,100,0.0,0.0,100,0.01,,,0.01,VWS V12.08,2013-04-11 09:58:00,
2013-04-11 06:03:00,32.9,32.9,29.96,ESE,102,0.0,0.0,100,0.01,,,0.01,VWS V12.08,2013-04-11 10:03:00,
2013-04-11 06:08:00,32.6,32.6,29.96,East,96,0.0,3.0,100,0.01,,,0.01,VWS V12.08,2013-04-11 10:08:00,
2013-04-11 06:13:00,32.4,32.4,29.97,NE,48,0.0,0.0,100,0.01,,,0.01,VWS V12.08,2013-04-11 10:13:00,
2013-04-11 06:18:00,32.1,32.1,29.97,NE,44,0.0,0.0,100,0.01,,,0.01,VWS V12.08,2013-04-11 10:18:00,
2013-04-11 06:23:00,31.8,31.8,29.97,North,0,0.0,7.0,100,0.01,,,0.01,VWS V12.08,2013-04-11 10:23:00,
2013-04-11 06:28:00,31.7,31.7,29.98,ESE,102,2.0,3.0,100,0.01,,,0.01,VWS V12.08,2013-04-11 10:28:00,
2013-04-11 06:33:00,31.5,31.5,29.98,ENE,65,2.0,6.0,100,0.01,,,0.01,VWS V12.08,2013-04-11 10:33:00,
2013-04-11 06:38:00,31.4,31.4,29.98,ENE,64,0.0,0.0,100,0.01,,,0.01,VWS V12.08,2013-04-11 10:38:00,
2013-04-11 06:43:00,31.2,31.2,30.00,ENE,65,0.0,2.0,100,0.01,,,0.01,VWS V12.08,2013-04-11 10:43:00,
2013-04-11 06:48:00,31.1,31.1,30.00,NE,45,0.0,0.0,100,0.01,,,0.01,VWS V12.08,2013-04-11 10:48:00,
2013-04-11 06:53:00,30.9,30.9,30.00,ENE,59,1.0,1.0,100,0.00,,,0.01,VWS V12.08,2013-04-11 10:53:00,
2013-04-11 06:58:00,30.9,30.9,30.00,NE,51,0.0,0.0,100,0.00,,,0.01,VWS V12.08,2013-04-11 10:58:00,
2013-04-11 07:03:00,30.8,30.8,30.00,NE,55,0.0,3.0,100,0.00,,,0.01,VWS V12.08,2013-04-11 11:03:00,
2013-04-11 07:08:00,30.8,30.5,30.00,ENE,59,0.0,3.0,99,0.00,,,0.01,VWS V12.08,2013-04-11 11:08:00,
2013-04-11 07:14:00,30.9,30.4,30.00,North,0,0.0,2.0,98,0.00,,,0.01,VWS V12.08,2013-04-11 11:14:00,
2013-04-11 07:19:00,30.9,29.9,30.00,East,82,0.0,2.0,96,0.00,,,0.01,VWS V12.08,2013-04-11 11:19:00,
2013-04-11 07:24:00,31.1,29.8,30.00,East,85,0.0,2.0,95,0.00,,,0.01,VWS V12.08,2013-04-11 11:24:00,
2013-04-11 07:29:00,31.4,29.6,30.00,ENE,65,2.0,7.0,93,0.00,,,0.01,VWS V12.08,2013-04-11 11:29:00,
2013-04-11 07:34:00,32.1,28.7,30.00,East,96,0.0,5.0,87,0.00,,,0.01,VWS V12.08,2013-04-11 11:34:00,
2013-04-11 07:39:00,33.0,29.0,30.00,ENE,71,0.0,2.0,85,0.00,,,0.01,VWS V12.08,2013-04-11 11:39:00,
2013-04-11 07:44:00,33.8,28.9,29.99,ENE,71,0.0,1.0,82,0.00,,CLR,0.01,VWS V12.08,2013-04-11 11:44:00,
2013-04-11 07:49:00,34.5,29.0,29.99,East,90,3.0,5.0,80,0.00,,CLR,0.01,VWS V12.08,2013-04-11 11:49:00,
2013-04-11 07:54:00,35.0,28.5,29.99,ENE,64,0.0,2.0,77,0.00,,CLR,0.01,VWS V12.08,2013-04-11 11:54:00,
2013-04-11 07:59:00,35.5,27.7,30.01,ENE,68,1.0,1.0,73,0.00,,CLR,0.01,VWS V12.08,2013-04-11 11:59:00,
2013-04-11 08:04:00,36.2,28.1,30.01,ENE,64,0.0,0.0,72,0.00,,CLR,0.01,VWS V12.08,2013-04-11 12:04:00,
2013-04-11 08:09:00,36.2,27.4,30.01,ESE,106,2.0,2.0,70,0.00,,CLR,0.01,VWS V12.08,2013-04-11 12:09:00,
2013-04-11 08:14:00,36.6,27.0,30.02,NE,49,1.0,3.0,68,0.00,,CLR,0.01,VWS V12.08,2013-04-11 12:14:00,
2013-04-11 08:19:00,37.1,26.8,30.02,North,0,1.0,6.0,66,0.00,,CLR,0.01,VWS V12.08,2013-04-11 12:19:00,
2013-04-11 08:24:00,37.6,27.3,30.02,NE,55,0.0,3.0,66,0.00,,CLR,0.01,VWS V12.08,2013-04-11 12:24:00,
2013-04-11 08:29:00,38.1,26.2,30.02,NNE,25,1.0,3.0,62,0.00,,CLR,0.01,VWS V12.08,2013-04-11 12:29:00,
2013-04-11 08:34:00,38.3,27.2,30.02,NNW,344,1.0,7.0,64,0.00,,CLR,0.01,VWS V12.08,2013-04-11 12:34:00,
2013-04-11 08:39:00,38.2,26.3,30.02,NE,45,1.0,6.0,62,0.00,,CLR,0.01,VWS V12.08,2013-04-11 12:39:00,
2013-04-11 08:44:00,38.6,26.7,30.02,NNW,330,1.0,5.0,62,0.00,,CLR,0.01,VWS V12.08,2013-04-11 12:44:00,
2013-04-11 08:49:00,39.2,27.3,30.02,North,0,0.0,2.0,62,0.00,,CLR,0.01,VWS V12.08,2013-04-11 12:49:00,
2013-04-11 08:54:00,39.5,25.1,30.02,NE,42,2.0,3.0,56,0.00,,CLR,0.01,VWS V12.08,2013-04-11 12:54:00,
2013-04-11 08:59:00,39.8,25.4,30.02,ENE,61,2.0,6.0,56,0.00,,CLR,0.01,VWS V12.08,2013-04-11 12:59:00,
2013-04-11 09:04:00,39.6,25.2,30.02,NE,42,1.0,2.0,56,0.00,,CLR,0.01,VWS V12.08,2013-04-11 13:04:00,
2013-04-11 09:09:00,39.9,26.3,30.02,ENE,59,1.0,6.0,58,0.00,,CLR,0.01,VWS V12.08,2013-04-11 13:09:00,
2013-04-11 09:14:00,40.1,25.2,30.02,NE,48,2.0,6.0,55,0.00,,CLR,0.01,VWS V12.08,2013-04-11 13:14:00,
2013-04-11 09:19:00,40.3,25.9,30.02,SE,127,6.0,6.0,56,0.00,,CLR,0.01,VWS V12.08,2013-04-11 13:19:00,
2013-04-11 09:24:00,39.6,24.8,30.02,ENE,71,4.0,6.0,55,0.00,,CLR,0.01,VWS V12.08,2013-04-11 13:24:00,
2013-04-11 09:29:00,39.3,23.2,30.02,East,97,1.0,3.0,52,0.00,,CLR,0.01,VWS V12.08,2013-04-11 13:29:00,
2013-04-11 09:34:00,39.6,23.9,30.02,ENE,73,2.0,9.0,53,0.00,,CLR,0.01,VWS V12.08,2013-04-11 13:34:00,
2013-04-11 09:39:00,40.1,22.5,30.02,ENE,78,5.0,9.0,49,0.00,,CLR,0.01,VWS V12.08,2013-04-11 13:39:00,
2013-04-11 09:44:00,39.5,21.9,30.02,East,89,6.0,10.0,49,0.00,,CLR,0.01,VWS V12.08,2013-04-11 13:44:00,
2013-04-11 09:49:00,39.9,23.3,30.02,ENE,69,4.0,4.0,51,0.00,,CLR,0.01,VWS V12.08,2013-04-11 13:49:00,
2013-04-11 09:54:00,40.8,21.6,30.02,East,82,6.0,8.0,46,0.00,,CLR,0.01,VWS V12.08,2013-04-11 13:54:00,
2013-04-11 09:59:00,40.9,21.7,30.02,NE,48,5.0,8.0,46,0.00,,CLR,0.01,VWS V12.08,2013-04-11 13:59:00,
2013-04-11 10:04:00,41.1,22.9,30.02,ENE,69,8.0,13.0,48,0.00,,CLR,0.01,VWS V12.08,2013-04-11 14:04:00,
2013-04-11 10:09:00,41.1,19.8,30.02,ENE,75,6.0,8.0,42,0.00,,CLR,0.01,VWS V12.08,2013-04-11 14:09:00,
2013-04-11 10:14:00,41.1,19.8,30.03,NE,54,5.0,9.0,42,0.00,,CLR,0.01,VWS V12.08,2013-04-11 14:14:00,
2013-04-11 10:19:00,41.3,20.5,30.03,ENE,78,6.0,7.0,43,0.00,,CLR,0.01,VWS V12.08,2013-04-11 14:19:00,
2013-04-11 10:24:00,41.1,20.9,30.03,ESE,102,7.0,17.0,44,0.00,,CLR,0.01,VWS V12.08,2013-04-11 14:24:00,
2013-04-11 10:29:00,41.2,18.1,30.04,ENE,76,7.0,9.0,39,0.00,,CLR,0.01,VWS V12.08,2013-04-11 14:29:00,
2013-04-11 10:34:00,41.9,19.4,30.04,ENE,62,6.0,8.0,40,0.00,,CLR,0.01,VWS V12.08,2013-04-11 14:34:00,
2013-04-11 10:39:00,42.5,20.5,30.04,NE,51,2.0,13.0,41,0.00,,CLR,0.01,VWS V12.08,2013-04-11 14:39:00,
2013-04-11 10:44:00,42.1,20.1,30.04,ENE,76,1.0,1.0,41,0.00,,CLR,0.01,VWS V12.08,2013-04-11 14:44:00,
2013-04-11 10:49:00,42.3,20.9,30.04,ENE,71,6.0,10.0,42,0.00,,CLR,0.01,VWS V12.08,2013-04-11 14:49:00,
2013-04-11 10:54:00,42.2,19.6,30.04,NE,55,1.0,2.0,40,0.00,,CLR,0.01,VWS V12.08,2013-04-11 14:54:00,
2013-04-11 11:00:00,42.1,20.1,30.04,East,80,9.0,11.0,41,0.00,,CLR,0.01,VWS V12.08,2013-04-11 15:00:00,
2013-04-11 11:05:00,41.9,19.4,30.04,ENE,78,3.0,6.0,40,0.00,,CLR,0.01,VWS V12.08,2013-04-11 15:05:00,
2013-04-11 11:10:00,41.5,20.1,30.04,ENE,73,3.0,6.0,42,0.00,,CLR,0.01,VWS V12.08,2013-04-11 15:10:00,
2013-04-11 11:15:00,41.5,20.7,30.04,ENE,64,6.0,12.0,43,0.00,,CLR,0.01,VWS V12.08,2013-04-11 15:15:00,
2013-04-11 11:20:00,41.1,19.8,30.04,ENE,76,6.0,6.0,42,0.00,,CLR,0.01,VWS V12.08,2013-04-11 15:20:00,
2013-04-11 11:25:00,41.3,18.2,30.04,NNE,32,2.0,11.0,39,0.00,,CLR,0.01,VWS V12.08,2013-04-11 15:25:00,
2013-04-11 11:30:00,41.5,20.7,30.05,ENE,73,5.0,7.0,43,0.00,,CLR,0.01,VWS V12.08,2013-04-11 15:30:00,
2013-04-11 11:35:00,41.3,21.0,30.05,NNE,30,2.0,5.0,44,0.00,,CLR,0.01,VWS V12.08,2013-04-11 15:35:00,
2013-04-11 11:40:00,41.2,19.3,30.05,SSW,208,1.0,5.0,41,0.00,,CLR,0.01,VWS V12.08,2013-04-11 15:40:00,
2013-04-11 11:45:00,40.9,19.0,30.06,NW,304,0.0,2.0,41,0.00,,CLR,0.01,VWS V12.08,2013-04-11 15:45:00,
2013-04-11 11:50:00,40.8,18.9,30.06,NE,38,5.0,5.0,41,0.00,,CLR,0.01,VWS V12.08,2013-04-11 15:50:00,
2013-04-11 11:55:00,41.1,19.8,30.06,East,88,6.0,7.0,42,0.00,,CLR,0.01,VWS V12.08,2013-04-11 15:55:00,
2013-04-11 12:00:00,40.8,18.9,30.06,NNW,343,2.0,2.0,41,0.00,,CLR,0.01,VWS V12.08,2013-04-11 16:00:00,
2013-04-11 12:05:00,40.5,18.1,30.06,North,0,0.0,1.0,40,0.00,,CLR,0.01,VWS V12.08,2013-04-11 16:05:00,
2013-04-11 12:10:00,40.3,16.1,30.06,NE,47,5.0,7.0,37,0.00,,CLR,0.01,VWS V12.08,2013-04-11 16:10:00,
2013-04-11 12:15:00,39.8,14.4,30.07,NW,308,2.0,8.0,35,0.00,,CLR,0.01,VWS V12.08,2013-04-11 16:15:00,
2013-04-11 12:20:00,39.9,13.1,30.07,East,97,0.0,2.0,33,0.00,,CLR,0.01,VWS V12.08,2013-04-11 16:20:00,
2013-04-11 12:25:00,40.1,15.3,30.07,ENE,78,1.0,3.0,36,0.00,,CLR,0.01,VWS V12.08,2013-04-11 16:25:00,
2013-04-11 12:30:00,40.2,12.7,30.08,NNW,336,1.0,3.0,32,0.00,,CLR,0.01,VWS V12.08,2013-04-11 16:30:00,
2013-04-11 12:35:00,40.3,12.8,30.08,NE,40,0.0,0.0,32,0.00,,CLR,0.01,VWS V12.08,2013-04-11 16:35:00,
2013-04-11 12:40:00,40.5,13.7,30.08,North,356,2.0,3.0,33,0.00,,CLR,0.01,VWS V12.08,2013-04-11 16:40:00,
2013-04-11 12:45:00,40.6,12.4,30.09,NNE,31,1.0,6.0,31,0.00,,,0.01,VWS V12.08,2013-04-11 16:45:00,
2013-04-11 12:50:00,40.5,13.0,30.09,East,85,2.0,2.0,32,0.00,,,0.01,VWS V12.08,2013-04-11 16:50:00,
2013-04-11 12:55:00,40.3,12.8,30.09,NNW,335,2.0,2.0,32,0.00,,,0.01,VWS V12.08,2013-04-11 16:55:00,
2013-04-11 13:00:00,40.8,13.2,30.09,NE,55,3.0,6.0,32,0.00,,,0.01,VWS V12.08,2013-04-11 17:00:00,
2013-04-11 13:05:00,40.9,11.9,30.09,NNE,23,2.0,6.0,30,0.00,,,0.01,VWS V12.08,2013-04-11 17:05:00,
2013-04-11 13:10:00,40.8,12.5,30.09,ENE,66,6.0,6.0,31,0.00,,,0.01,VWS V12.08,2013-04-11 17:10:00,
2013-04-11 13:15:00,40.6,10.9,30.08,North,350,0.0,3.0,29,0.00,,,0.01,VWS V12.08,2013-04-11 17:15:00,
2013-04-11 13:20:00,40.8,12.5,30.08,NNW,344,0.0,10.0,31,0.00,,,0.01,VWS V12.08,2013-04-11 17:20:00,
2013-04-11 13:25:00,40.8,11.8,30.08,NE,54,1.0,3.0,30,0.00,,,0.01,VWS V12.08,2013-04-11 17:25:00,
2013-04-11 13:30:00,40.5,13.0,30.07,SE,130,3.0,7.0,32,0.00,,,0.01,VWS V12.08,2013-04-11 17:30:00,
2013-04-11 13:35:00,40.8,10.2,30.07,ENE,76,1.0,2.0,28,0.00,,,0.01,VWS V12.08,2013-04-11 17:35:00,
2013-04-11 13:40:00,41.2,10.6,30.07,ENE,66,5.0,10.0,28,0.00,,FEW110,0.01,VWS V12.08,2013-04-11 17:40:00,
2013-04-11 13:45:00,40.6,10.1,30.08,ENE,58,1.0,5.0,28,0.00,,FEW110,0.01,VWS V12.08,2013-04-11 17:45:00,
2013-04-11 13:50:00,40.8,10.2,30.08,NE,54,3.0,5.0,28,0.00,,FEW110,0.01,VWS V12.08,2013-04-11 17:50:00,
2013-04-11 13:55:00,40.9,12.6,30.08,NNW,343,1.0,2.0,31,0.00,,FEW110,0.01,VWS V12.08,2013-04-11 17:55:00,
2013-04-11 14:00:00,41.3,10.7,30.09,ENE,75,5.0,11.0,28,0.00,,FEW110,0.01,VWS V12.08,2013-04-11 18:00:00,
2013-04-11 14:05:00,41.5,12.4,30.09,NW,306,2.0,6.0,30,0.00,,FEW110,0.01,VWS V12.08,2013-04-11 18:05:00,
2013-04-11 14:10:00,41.6,10.1,30.09,East,89,3.0,5.0,27,0.00,,FEW110,0.01,VWS V12.08,2013-04-11 18:10:00,
2013-04-11 14:15:00,41.8,11.1,30.08,North,0,0.0,2.0,28,0.00,,FEW110,0.01,VWS V12.08,2013-04-11 18:15:00,
2013-04-11 14:20:00,41.6,10.1,30.08,East,83,5.0,7.0,27,0.00,,FEW110,0.01,VWS V12.08,2013-04-11 18:20:00,
2013-04-11 14:25:00,41.1,11.3,30.08,ENE,58,0.0,1.0,29,0.00,,FEW110,0.01,VWS V12.08,2013-04-11 18:25:00,
2013-04-11 14:30:00,40.9,11.1,30.08,East,82,6.0,9.0,29,0.00,,FEW110,0.01,VWS V12.08,2013-04-11 18:30:00,
2013-04-11 14:35:00,40.9,11.9,30.08,NE,37,0.0,3.0,30,0.00,,FEW110,0.01,VWS V12.08,2013-04-11 18:35:00,
2013-04-11 14:41:00,41.1,13.5,30.08,NE,47,3.0,4.0,32,0.00,,CLR,0.01,VWS V12.08,2013-04-11 18:41:00,
2013-04-11 14:46:00,41.1,12.8,30.07,NE,49,0.0,7.0,31,0.00,,CLR,0.01,VWS V12.08,2013-04-11 18:46:00,
2013-04-11 14:51:00,41.1,12.8,30.07,ENE,78,0.0,6.0,31,0.00,,CLR,0.01,VWS V12.08,2013-04-11 18:51:00,
2013-04-11 14:56:00,41.5,15.2,30.07,NE,42,5.0,7.0,34,0.00,,CLR,0.01,VWS V12.08,2013-04-11 18:56:00,
2013-04-11 15:01:00,41.5,12.4,30.07,East,99,11.0,11.0,30,0.00,,CLR,0.01,VWS V12.08,2013-04-11 19:01:00,
2013-04-11 15:06:00,41.5,13.9,30.07,NNW,344,1.0,8.0,32,0.00,,CLR,0.01,VWS V12.08,2013-04-11 19:06:00,
2013-04-11 15:11:00,41.5,15.2,30.07,ENE,76,4.0,10.0,34,0.00,,CLR,0.01,VWS V12.08,2013-04-11 19:11:00,
2013-04-11 15:16:00,41.6,13.9,30.06,ENE,73,2.0,5.0,32,0.00,,CLR,0.01,VWS V12.08,2013-04-11 19:16:00,
2013-04-11 15:22:00,41.6,15.3,30.06,ENE,68,4.0,9.0,34,0.00,,CLR,0.01,VWS V12.08,2013-04-11 19:22:00,
2013-04-11 15:27:00,41.6,14.6,30.06,ENE,69,3.0,4.0,33,0.00,,CLR,0.01,VWS V12.08,2013-04-11 19:27:00,
2013-04-11 15:32:00,41.6,16.0,30.05,ENE,68,4.0,4.0,35,0.00,,CLR,0.01,VWS V12.08,2013-04-11 19:32:00,
2013-04-11 15:37:00,41.2,14.3,30.05,ENE,69,4.0,5.0,33,0.00,,CLR,0.01,VWS V12.08,2013-04-11 19:37:00,
2013-04-11 15:42:00,40.8,15.3,30.05,ENE,73,0.0,5.0,35,0.00,,BKN110,0.01,VWS V12.08,2013-04-11 19:42:00,
2013-04-11 15:47:00,40.9,14.0,30.05,NE,44,3.0,8.0,33,0.00,,BKN110,0.01,VWS V12.08,2013-04-11 19:47:00,
2013-04-11 15:52:00,40.9,12.6,30.05,ENE,68,5.0,5.0,31,0.00,,BKN110,0.01,VWS V12.08,2013-04-11 19:52:00,
2013-04-11 15:57:00,40.9,13.3,30.05,ENE,69,0.0,2.0,32,0.00,,BKN110,0.01,VWS V12.08,2013-04-11 19:57:00,
2013-04-11 16:02:00,41.1,14.9,30.05,ENE,73,2.0,5.0,34,0.00,,BKN110,0.01,VWS V12.08,2013-04-11 20:02:00,
2013-04-11 16:07:00,41.1,13.5,30.05,East,93,5.0,7.0,32,0.00,,BKN110,0.01,VWS V12.08,2013-04-11 20:07:00,
2013-04-11 16:12:00,40.8,14.6,30.05,ENE,58,5.0,5.0,34,0.00,,BKN110,0.01,VWS V12.08,2013-04-11 20:12:00,
2013-04-11 16:18:00,40.5,12.3,30.06,ENE,72,0.0,0.0,31,0.00,,BKN110,0.01,VWS V12.08,2013-04-11 20:18:00,
2013-04-11 16:23:00,40.3,13.5,30.06,ENE,61,0.0,3.0,33,0.00,,BKN110,0.01,VWS V12.08,2013-04-11 20:23:00,
2013-04-11 16:28:00,40.3,13.5,30.07,ENE,59,3.0,5.0,33,0.00,,BKN110,0.01,VWS V12.08,2013-04-11 20:28:00,
2013-04-11 16:33:00,40.3,13.5,30.07,ENE,58,0.0,4.0,33,0.00,,BKN110,0.01,VWS V12.08,2013-04-11 20:33:00,
2013-04-11 16:38:00,40.3,13.5,30.07,ENE,78,4.0,6.0,33,0.00,,BKN110,0.01,VWS V12.08,2013-04-11 20:38:00,
2013-04-11 16:43:00,40.3,12.8,30.07,NE,55,8.0,8.0,32,0.00,,BKN110,0.01,VWS V12.08,2013-04-11 20:43:00,
2013-04-11 16:48:00,40.3,12.1,30.07,ENE,61,5.0,5.0,31,0.00,,BKN110,0.01,VWS V12.08,2013-04-11 20:48:00,
2013-04-11 16:53:00,40.3,13.5,30.07,ENE,58,5.0,5.0,33,0.00,,BKN110,0.01,VWS V12.08,2013-04-11 20:53:00,
2013-04-11 16:58:00,40.2,13.4,30.09,NE,56,1.0,5.0,33,0.00,,BKN110,0.01,VWS V12.08,2013-04-11 20:58:00,
2013-04-11 17:03:00,40.2,14.1,30.09,North,349,0.0,5.0,34,0.00,,BKN110,0.01,VWS V12.08,2013-04-11 21:03:00,
2013-04-11 17:08:00,40.2,14.1,30.09,ENE,61,1.0,2.0,34,0.00,,BKN110,0.01,VWS V12.08,2013-04-11 21:08:00,
2013-04-11 17:13:00,40.3,14.8,30.09,ENE,76,4.0,8.0,35,0.00,,BKN110,0.01,VWS V12.08,2013-04-11 21:13:00,
2013-04-11 17:18:00,39.9,11.7,30.09,East,86,0.0,5.0,31,0.00,,BKN110,0.01,VWS V12.08,2013-04-11 21:18:00,
2013-04-11 17:24:00,39.9,12.4,30.09,ENE,69,4.0,6.0,32,0.00,,BKN110,0.01,VWS V12.08,2013-04-11 21:24:00,
2013-04-11 17:29:00,39.9,11.7,30.09,NE,52,2.0,2.0,31,0.00,,BKN110,0.01,VWS V12.08,2013-04-11 21:29:00,
2013-04-11 17:34:00,39.9,13.1,30.09,NE,38,5.0,7.0,33,0.00,,BKN110,0.01,VWS V12.08,2013-04-11 21:34:00,
2013-04-11 17:39:00,39.9,12.4,30.09,ENE,61,5.0,5.0,32,0.00,,BKN110,0.01,VWS V12.08,2013-04-11 21:39:00,
2013-04-11 17:44:00,39.9,11.7,30.10,North,4,0.0,3.0,31,0.00,,OVC100,0.01,VWS V12.08,2013-04-11 21:44:00,
2013-04-11 17:49:00,39.8,11.6,30.10,NE,35,3.0,4.0,31,0.00,,OVC100,0.01,VWS V12.08,2013-04-11 21:49:00,
2013-04-11 17:54:00,39.6,12.9,30.10,ENE,75,0.0,4.0,33,0.00,,OVC100,0.01,VWS V12.08,2013-04-11 21:54:00,
2013-04-11 17:59:00,39.6,12.9,30.09,ENE,69,1.0,3.0,33,0.00,,OVC100,0.01,VWS V12.08,2013-04-11 21:59:00,
2013-04-11 18:04:00,39.6,13.6,30.09,ENE,69,1.0,6.0,34,0.00,,OVC100,0.01,VWS V12.08,2013-04-11 22:04:00,
2013-04-11 18:09:00,39.5,14.1,30.09,NNE,18,3.0,6.0,35,0.00,,OVC100,0.01,VWS V12.08,2013-04-11 22:09:00,
2013-04-11 18:14:00,39.1,13.1,30.10,ENE,73,1.0,5.0,34,0.00,,OVC100,0.01,VWS V12.08,2013-04-11 22:14:00,
2013-04-11 18:19:00,38.8,12.9,30.10,NNE,17,2.0,5.0,34,0.00,,OVC100,0.01,VWS V12.08,2013-04-11 22:19:00,
2013-04-11 18:24:00,38.6,13.3,30.10,NNE,24,3.0,5.0,35,0.00,,OVC100,0.01,VWS V12.08,2013-04-11 22:24:00,
2013-04-11 18:29:00,38.5,13.9,30.10,NE,51,3.0,3.0,36,0.00,,OVC100,0.01,VWS V12.08,2013-04-11 22:29:00,
2013-04-11 18:34:00,38.3,14.3,30.10,NE,48,0.0,0.0,37,0.00,,OVC100,0.01,VWS V12.08,2013-04-11 22:34:00,
2013-04-11 18:39:00,38.3,14.3,30.10,NE,41,1.0,3.0,37,0.00,,OVC100,0.01,VWS V12.08,2013-04-11 22:39:00,
2013-04-11 18:44:00,38.1,12.9,30.11,ENE,75,6.0,6.0,35,0.00,,OVC100,0.01,VWS V12.08,2013-04-11 22:44:00,
2013-04-11 18:49:00,37.9,14.6,30.11,NE,37,4.0,5.0,38,0.00,,OVC100,0.01,VWS V12.08,2013-04-11 22:49:00,
2013-04-11 18:54:00,37.6,14.9,30.11,ENE,59,5.0,7.0,39,0.00,,OVC100,0.01,VWS V12.08,2013-04-11 22:54:00,
2013-04-11 18:59:00,37.3,14.6,30.11,NE,34,1.0,1.0,39,0.00,,OVC100,0.01,VWS V12.08,2013-04-11 22:59:00,
2013-04-11 19:04:00,37.2,14.5,30.11,NE,47,0.0,3.0,39,0.00,,OVC100,0.01,VWS V12.08,2013-04-11 23:04:00,
2013-04-11 19:09:00,37.2,14.5,30.11,NE,47,0.0,2.0,39,0.00,,OVC100,0.01,VWS V12.08,2013-04-11 23:09:00,
2013-04-11 19:14:00,37.1,15.0,30.11,NE,52,0.0,5.0,40,0.00,,OVC100,0.01,VWS V12.08,2013-04-11 23:14:00,
2013-04-11 19:19:00,36.9,14.9,30.11,NE,52,1.0,2.0,40,0.00,,OVC100,0.01,VWS V12.08,2013-04-11 23:19:00,
2013-04-11 19:24:00,36.8,14.8,30.11,NE,54,1.0,2.0,40,0.00,,OVC100,0.01,VWS V12.08,2013-04-11 23:24:00,
2013-04-11 19:29:00,36.6,15.7,30.12,NE,54,2.0,2.0,42,0.00,,OVC100,0.01,VWS V12.08,2013-04-11 23:29:00,
2013-04-11 19:34:00,36.5,13.9,30.12,East,80,0.0,2.0,39,0.00,,OVC100,0.01,VWS V12.08,2013-04-11 23:34:00,
2013-04-11 19:39:00,36.5,15.1,30.12,East,82,1.0,1.0,41,0.00,,OVC100,0.01,VWS V12.08,2013-04-11 23:39:00,
2013-04-11 19:44:00,36.3,16.0,30.12,East,82,1.0,2.0,43,0.00,,CLR,0.01,VWS V12.08,2013-04-11 23:44:00,
2013-04-11 19:49:00,36.3,14.9,30.12,East,80,2.0,3.0,41,0.00,,CLR,0.01,VWS V12.08,2013-04-11 23:49:00,
2013-04-11 19:54:00,36.2,14.8,30.12,East,79,2.0,2.0,41,0.00,,CLR,0.01,VWS V12.08,2013-04-11 23:54:00,
2013-04-11 19:59:00,36.2,15.9,30.12,East,79,1.0,2.0,43,0.00,,CLR,0.01,VWS V12.08,2013-04-11 23:59:00,
2013-04-11 20:04:00,36.0,15.7,30.12,East,79,1.0,2.0,43,0.00,,CLR,0.01,VWS V12.08,2013-04-12 00:04:00,
2013-04-11 20:09:00,35.9,15.6,30.12,East,79,1.0,4.0,43,0.00,,CLR,0.01,VWS V12.08,2013-04-12 00:09:00,
2013-04-11 20:14:00,35.9,16.1,30.11,East,80,1.0,2.0,44,0.00,,CLR,0.01,VWS V12.08,2013-04-12 00:14:00,
2013-04-11 20:19:00,35.8,15.5,30.11,ENE,62,3.0,6.0,43,0.00,,CLR,0.01,VWS V12.08,2013-04-12 00:19:00,
2013-04-11 20:24:00,35.8,15.5,30.11,East,79,0.0,5.0,43,0.00,,OVC100,0.01,VWS V12.08,2013-04-12 00:24:00,
2013-04-11 20:29:00,35.6,15.9,30.12,ENE,78,2.0,4.0,44,0.00,,OVC100,0.01,VWS V12.08,2013-04-12 00:29:00,
2013-04-11 20:34:00,35.6,16.9,30.12,ENE,78,0.0,2.0,46,0.00,,OVC100,0.01,VWS V12.08,2013-04-12 00:34:00,
2013-04-11 20:39:00,35.6,16.9,30.12,ENE,78,1.0,3.0,46,0.00,,OVC100,0.01,VWS V12.08,2013-04-12 00:39:00,
2013-04-11 20:44:00,35.6,16.4,30.13,ENE,78,1.0,2.0,45,0.00,,OVC100,0.01,VWS V12.08,2013-04-12 00:44:00,
2013-04-11 20:49:00,35.5,16.3,30.13,ENE,78,0.0,0.0,45,0.00,,OVC100,0.01,VWS V12.08,2013-04-12 00:49:00,
2013-04-11 20:54:00,35.5,16.3,30.13,ENE,78,1.0,1.0,45,0.00,,OVC100,0.01,VWS V12.08,2013-04-12 00:54:00,
2013-04-11 20:59:00,35.5,17.3,30.14,ENE,78,1.0,3.0,47,0.00,,OVC100,0.01,VWS V12.08,2013-04-12 00:59:00,
2013-04-11 21:04:00,35.5,16.8,30.14,ENE,78,1.0,3.0,46,0.00,,OVC100,0.01,VWS V12.08,2013-04-12 01:04:00,
2013-04-11 21:09:00,35.3,16.6,30.14,East,80,3.0,5.0,46,0.00,,OVC100,0.01,VWS V12.08,2013-04-12 01:09:00,
2013-04-11 21:14:00,35.3,17.6,30.15,ENE,75,0.0,0.0,48,0.00,,OVC100,0.01,VWS V12.08,2013-04-12 01:14:00,
2013-04-11 21:19:00,35.3,17.1,30.15,ENE,76,0.0,2.0,47,0.00,,OVC100,0.01,VWS V12.08,2013-04-12 01:19:00,
2013-04-11 21:24:00,35.2,17.5,30.15,ENE,76,0.0,2.0,48,0.00,,OVC100,0.01,VWS V12.08,2013-04-12 01:24:00,
2013-04-11 21:29:00,35.2,17.0,30.15,ENE,76,1.0,2.0,47,0.00,,OVC100,0.01,VWS V12.08,2013-04-12 01:29:00,
2013-04-11 21:34:00,35.2,17.0,30.15,ENE,78,0.0,3.0,47,0.00,,OVC100,0.01,VWS V12.08,2013-04-12 01:34:00,
2013-04-11 21:39:00,35.2,17.5,30.15,ENE,78,1.0,2.0,48,0.00,,OVC100,0.01,VWS V12.08,2013-04-12 01:39:00,
2013-04-11 21:44:00,35.0,17.3,30.15,ENE,75,0.0,3.0,48,0.00,,OVC100,0.01,VWS V12.08,2013-04-12 01:44:00,
2013-04-11 21:49:00,34.9,17.2,30.15,ENE,75,0.0,0.0,48,0.00,,OVC100,0.01,VWS V12.08,2013-04-12 01:49:00,
2013-04-11 21:54:00,34.9,17.7,30.15,ENE,75,0.0,2.0,49,0.00,,OVC100,0.01,VWS V12.08,2013-04-12 01:54:00,
2013-04-11 21:59:00,34.9,17.2,30.15,ENE,71,0.0,0.0,48,0.00,,OVC100,0.01,VWS V12.08,2013-04-12 01:59:00,
2013-04-11 22:04:00,34.8,16.6,30.15,ENE,71,0.0,0.0,47,0.00,,OVC100,0.01,VWS V12.08,2013-04-12 02:04:00,
2013-04-11 22:09:00,34.8,17.1,30.15,ENE,71,0.0,0.0,48,0.00,,OVC100,0.01,VWS V12.08,2013-04-12 02:09:00,
2013-04-11 22:14:00,34.8,16.6,30.15,ENE,71,0.0,1.0,47,0.00,,OVC100,0.01,VWS V12.08,2013-04-12 02:14:00,
2013-04-11 22:19:00,34.6,17.4,30.15,ENE,71,0.0,0.0,49,0.00,,OVC100,0.01,VWS V12.08,2013-04-12 02:19:00,
2013-04-11 22:24:00,34.5,17.3,30.15,ENE,71,0.0,1.0,49,0.00,,OVC100,0.01,VWS V12.08,2013-04-12 02:24:00,
2013-04-11 22:30:00,34.2,16.6,30.15,ENE,71,0.0,0.0,48,0.00,,OVC100,0.01,VWS V12.08,2013-04-12 02:30:00,
2013-04-11 22:35:00,34.0,16.9,30.15,ENE,71,0.0,0.0,49,0.00,,OVC100,0.01,VWS V12.08,2013-04-12 02:35:00,
2013-04-11 22:40:00,33.9,16.8,30.15,ENE,72,0.0,0.0,49,0.00,,OVC100,0.01,VWS V12.08,2013-04-12 02:40:00,
2013-04-11 22:45:00,33.6,17.0,30.15,ENE,71,0.0,0.0,50,0.00,,SCT120,0.01,VWS V12.08,2013-04-12 02:45:00,
2013-04-11 22:50:00,33.5,16.9,30.15,ENE,68,0.0,0.0,50,0.00,,SCT120,0.01,VWS V12.08,2013-04-12 02:50:00,
2013-04-11 22:55:00,33.3,17.1,30.15,ENE,68,0.0,0.0,51,0.00,,SCT120,0.01,VWS V12.08,2013-04-12 02:55:00,
2013-04-11 23:00:00,33.2,17.0,30.15,ENE,68,0.0,0.0,51,0.00,,SCT120,0.01,VWS V12.08,2013-04-12 03:00:00,
2013-04-11 23:05:00,33.2,18.4,30.15,ENE,68,0.0,0.0,54,0.00,,SCT120,0.01,VWS V12.08,2013-04-12 03:05:00,
2013-04-11 23:10:00,33.0,18.6,30.15,ENE,68,0.0,0.0,55,0.00,,SCT120,0.01,VWS V12.08,2013-04-12 03:10:00,
2013-04-11 23:15:00,33.0,18.6,30.15,ENE,68,0.0,0.0,55,0.00,,SCT120,0.01,VWS V12.08,2013-04-12 03:15:00,
2013-04-11 23:20:00,33.0,19.0,30.15,ENE,68,0.0,0.0,56,0.00,,SCT120,0.01,VWS V12.08,2013-04-12 03:20:00,
2013-04-11 23:25:00,33.0,19.0,30.15,ENE,69,1.0,3.0,56,0.00,,SCT120,0.01,VWS V12.08,2013-04-12 03:25:00,
2013-04-11 23:30:00,33.2,19.6,30.16,ENE,71,0.0,2.0,57,0.00,,SCT120,0.01,VWS V12.08,2013-04-12 03:30:00,
2013-04-11 23:35:00,33.2,19.6,30.16,ENE,71,0.0,2.0,57,0.00,,SCT120,0.01,VWS V12.08,2013-04-12 03:35:00,
2013-04-11 23:40:00,33.2,17.5,30.16,ENE,69,0.0,2.0,52,0.00,,SCT120,0.01,VWS V12.08,2013-04-12 03:40:00,
2013-04-11 23:45:00,33.2,18.4,30.17,ENE,66,1.0,3.0,54,0.00,,FEW120,0.01,VWS V12.08,2013-04-12 03:45:00,
2013-04-11 23:50:00,33.3,18.5,30.17,ENE,66,0.0,0.0,54,0.00,,FEW120,0.01,VWS V12.08,2013-04-12 03:50:00,
2013-04-11 23:55:00,33.3,18.5,30.17,ENE,66,0.0,0.0,54,0.00,,FEW120,0.01,VWS V12.08,2013-04-12 03:55:00,